Location: Bremen
(53.0793°N, 8.8017°E)
Time: 01:47:48
(UTC+02:00)

Transit 2A Rocket - All Passes

Search period start: 17 April 2024 00:00
Search period end: 27 April 2024 00:00
Orbit: 587 x 907 km, 66.7° (Epoch: 16 April)

Date Brightness Start Highest point End Pass type
(mag) Time Alt. Az. Time Alt. Az. Time Alt. Az.
17 Apr - 12:29:49 10° ESE 12:30:39 10° ESE 12:31:30 10° E daylight
17 Apr - 14:07:29 10° SSW 14:11:58 63° SE 14:16:54 10° NE daylight
17 Apr - 15:50:31 10° W 15:54:49 34° NNW 15:59:30 10° NNE daylight
17 Apr - 17:35:18 10° NW 17:38:49 19° N 17:42:33 10° NE daylight
17 Apr - 19:19:01 10° NNW 19:23:07 23° NNE 19:27:29 10° ENE daylight
17 Apr - 21:01:28 10° NW 21:06:44 53° NE 21:12:25 10° ESE visible
17 Apr - 22:44:05 10° NW 22:49:14 42° WSW 22:54:45 10° S visible
18 Apr - 13:24:01 10° S 13:28:12 38° ESE 13:32:45 10° NE daylight
18 Apr - 15:06:08 10° WSW 15:10:37 46° NW 15:15:33 10° NE daylight
18 Apr - 16:50:40 10° WNW 16:54:22 21° NNW 16:58:18 10° NE daylight
18 Apr - 18:34:54 10° NW 18:38:42 20° NNE 18:42:42 10° ENE daylight
18 Apr - 20:17:34 10° NNW 20:22:35 39° NE 20:27:58 10° ESE daylight
18 Apr - 22:00:00 10° NW 22:05:25 64° SW 22:11:15 10° SSE visible
18 Apr - 23:44:10 10° WNW 23:47:05 14° WSW 23:50:03 10° SW visible
19 Apr - 12:40:58 10° SSE 12:44:34 23° ESE 12:48:25 10° ENE daylight
19 Apr - 14:21:56 10° SW 14:26:32 68° NW 14:31:36 10° NE daylight
19 Apr - 16:06:01 10° WNW 16:09:57 24° NNW 16:14:12 10° NNE daylight
19 Apr - 17:50:38 10° NW 17:54:13 19° N 17:58:00 10° NE daylight
19 Apr - 19:33:39 10° NNW 19:38:20 30° NNE 19:43:20 10° E daylight
19 Apr - 21:16:00 10° NW 21:21:30 88° NE 21:27:24 10° SE visible
19 Apr - 22:59:14 10° WNW 23:03:30 23° WSW 23:07:58 10° SSW visible
20 Apr - 11:58:40 10° SE 12:01:02 14° ESE 12:03:30 10° ENE daylight
20 Apr - 13:37:59 10° SSW 13:42:34 79° SE 13:47:38 10° NE daylight
20 Apr - 15:21:24 10° W 15:25:37 30° NNW 15:30:11 10° NNE daylight
20 Apr - 17:06:11 10° NW 17:09:44 19° N 17:13:28 10° NE daylight
20 Apr - 18:49:40 10° NNW 18:53:59 25° NNE 18:58:36 10° ENE daylight
20 Apr - 20:32:04 10° NW 20:37:28 62° NE 20:43:17 10° SE daylight
20 Apr - 22:14:49 10° NW 22:19:49 35° WSW 22:25:06 10° S visible
21 Apr - 12:54:20 10° SSW 12:58:44 49° ESE 13:03:32 10° NE daylight
21 Apr - 14:36:55 10° WSW 14:41:21 40° NW 14:46:13 10° NE daylight
21 Apr - 16:21:35 10° WNW 16:25:14 20° N 16:29:07 10° NE daylight
21 Apr - 18:05:36 10° NW 18:09:35 21° NNE 18:13:47 10° ENE daylight
21 Apr - 19:48:10 10° NW 19:53:21 45° NE 19:58:55 10° ESE daylight
21 Apr - 21:30:39 10° NW 21:36:02 53° WSW 21:41:45 10° SSE visible
21 Apr - 23:15:55 10° W 23:17:30 11° WSW 23:19:06 10° WSW visible
22 Apr - 12:11:03 10° S 12:15:00 30° ESE 12:19:18 10° NE daylight
22 Apr - 13:52:36 10° WSW 13:57:12 56° NW 14:02:16 10° NE daylight
22 Apr - 15:36:56 10° WNW 15:40:48 22° NNW 15:44:56 10° NNE daylight
22 Apr - 17:21:23 10° NW 17:25:06 19° N 17:29:01 10° NE daylight
22 Apr - 19:04:14 10° NNW 19:09:07 34° NNE 19:14:21 10° E daylight
22 Apr - 20:46:37 10° NW 20:52:08 78° SW 20:58:03 10° SSE daylight
22 Apr - 22:30:12 10° WNW 22:33:58 18° WSW 22:37:53 10° SSW visible
23 Apr - 11:28:17 10° SSE 11:31:25 18° ESE 11:34:43 10° ENE daylight
23 Apr - 13:08:31 10° SW 13:13:09 85° NW 13:18:17 10° NE daylight
23 Apr - 14:52:16 10° W 14:56:23 27° NNW 15:00:51 10° NNE daylight
23 Apr - 16:37:00 10° NW 16:40:36 19° N 16:44:24 10° NE daylight
23 Apr - 18:20:16 10° NNW 18:24:48 27° NNE 18:29:39 10° E daylight
23 Apr - 20:02:39 10° NW 20:08:08 74° NE 20:14:03 10° SE daylight
23 Apr - 21:45:36 10° NW 21:50:20 28° WSW 21:55:18 10° S visible
24 Apr - 10:47:03 10° ESE 10:47:56 10° ESE 10:48:49 10° E daylight
24 Apr - 12:24:42 10° SSW 12:29:15 62° ESE 12:34:15 10° NE daylight
24 Apr - 14:07:42 10° W 14:12:05 35° NNW 14:16:51 10° NNE daylight
24 Apr - 15:52:28 10° NW 15:56:05 19° N 15:59:56 10° NE daylight
24 Apr - 17:36:14 10° NNW 17:40:24 23° NNE 17:44:50 10° ENE daylight
24 Apr - 19:18:42 10° NW 19:24:03 52° NE 19:29:47 10° ESE daylight
24 Apr - 21:01:19 10° NW 21:06:35 43° WSW 21:12:09 10° S daylight
25 Apr - 11:41:13 10° S 11:45:27 38° ESE 11:50:04 10° NE daylight
25 Apr - 13:23:17 10° WSW 13:27:51 47° NW 13:32:53 10° NE daylight
25 Apr - 15:07:48 10° WNW 15:11:36 21° NNW 15:15:39 10° NE daylight
25 Apr - 16:52:04 10° NW 16:55:56 20° NNE 17:00:02 10° ENE daylight
25 Apr - 18:34:46 10° NW 18:39:51 39° NE 18:45:18 10° ESE daylight
25 Apr - 20:17:12 10° NW 20:22:43 65° SW 20:28:35 10° SSE daylight
25 Apr - 22:01:19 10° WNW 22:04:22 15° WSW 22:07:31 10° SW visible
26 Apr - 10:58:09 10° SSE 11:01:47 23° ESE 11:05:40 10° ENE daylight
26 Apr - 12:39:05 10° SW 12:43:44 70° NW 12:48:54 10° NE daylight
26 Apr - 14:23:07 10° WNW 14:27:09 25° NNW 14:31:31 10° NNE daylight
26 Apr - 16:07:45 10° NW 16:11:26 19° N 16:15:19 10° NE daylight
26 Apr - 17:50:49 10° NNW 17:55:34 30° NNE 18:00:38 10° E daylight
26 Apr - 19:33:11 10° NW 19:38:45 87° NE 19:44:42 10° SE daylight
26 Apr - 21:16:23 10° WNW 21:20:47 23° WSW 21:25:20 10° SSW visible
